Regional Weather Roundup
Issued by NWS

Home | Current Version | Previous Version | Graphics & Text | Print | Product List | Glossary On
Versions: 1 2 3 4 5 6 7 8 9 10 11 12 13 14 15 16 17 18 19 20 21 22 23 24 25 26 27 28 29 30 31 32 33 34 35 36 37 38 39 40 41 42 43 44 45 46 47 48 49 50
000
ASUS43 KBIS 230910
RWRND
NORTH DAKOTA REGIONAL WEATHER ROUNDUP
NATIONAL WEATHER SERVICE EASTERN NORTH DAKOTA/GRAND FORKS ND
400 AM CDT WED MAY 23 2018

  NOTE: "FAIR" INDICATES FEW OR NO CLOUDS BELOW 12,000 FEET WITH NO
  SIGNIFICANT WEATHER AND/OR OBSTRUCTIONS TO VISIBILITY.

NDZ001>003-009>011-017-231000-
...NORTHWEST NORTH DAKOTA...

CITY           SKY/WX    TMP DP  RH WIND       PRES   REMARKS
WILLISTON      FAIR      57  53  86 NE6       29.92F
MINOT          FAIR      60  53  77 SW8       29.93F
MINOT AFB      FAIR      56  50  80 SW3       29.91F
$$

NDZ018>021-031>035-040>046-231000-
...SOUTHWEST NORTH DAKOTA...

CITY           SKY/WX    TMP DP  RH WIND       PRES   REMARKS
BISMARCK       FAIR      61  58  90 E6        29.94R
DICKINSON      FAIR      57  54  89 E9        29.90F
GARRISON         N/A     59  53  80 N6        29.92F
HETTINGER      FAIR      59  55  87 NE12      29.94F
$$

NDZ004>008-012>016-024-026-027-054-231000-
...NORTHEAST NORTH DAKOTA...

CITY           SKY/WX    TMP DP  RH WIND       PRES   REMARKS
GRAND FORKS    FAIR      61  56  83 S7        29.98F
GRAND FORKS AF FAIR      64  56  75 SE8       29.99S
DEVILS LAKE    FAIR      63  56  78 SE7       29.99R
$$

NDZ022-023-025-028>030-036>039-047>053-231000-
...SOUTHEAST NORTH DAKOTA...

CITY           SKY/WX    TMP DP  RH WIND       PRES   REMARKS
JAMESTOWN      FAIR      59  54  83 E6        29.95F
FARGO          FAIR      64  56  75 SE7       29.97S
WAHPETON       FAIR      63  52  67 SE10      29.99S
$$




USA.gov is the U.S. government's official web portal to all federal, state and local government web resources and services.